Regional Weather Roundup
Issued by NWS Green Bay, WI

Home | Current Version | Previous Version | Graphics & Text | Print | Product List | Glossary Off
Versions: 1 2 3 4 5 6 7 8 9 10 11 12 13 14 15 16 17 18 19 20 21 22 23 24 25 26 27 28 29 30 31 32 33 34 35 36 37 38 39 40 41 42 43 44 45 46 47 48 49 50

000
ASUS43 KGRB 310800
RWRGRB

NORTH-CENTRAL AND NORTHEAST WISCONSIN REGIONAL WEATHER ROUNDUP
NATIONAL WEATHER SERVICE GREEN BAY WI
300 AM CDT FRI JUL 31 2015

WIZ005-009-010>012-018-019-310900-
NORTH CENTRAL WISCONSIN

CITY           SKY/WX    TMP DP  RH WIND       PRES   REMARKS
IRONWOOD       CLEAR     63  55  77 W9        29.88R
MANITOWISH WTR NOT AVBL
ARBOR VITAE    NOT AVBL
EAGLE RIVER    NOT AVBL
LAND O LAKES   NOT AVBL
RHINELANDER    CLEAR     59  55  87 W8        29.95S
PHILLIPS       NOT AVBL
ANTIGO         NOT AVBL
TOMAHAWK       NOT AVBL
MERRILL        NOT AVBL
$$

WIZ013-073-310900-
NORTHEAST WISCONSIN

CITY           SKY/WX    TMP DP  RH WIND       PRES   REMARKS
IRON MOUNTAIN  CLEAR     62  56  80 W5        29.88S
MARINETTE      CLEAR     64  55  72 W6        29.88S
$$

WIZ017-030-035>037-045-310900-
CENTRAL WISCONSIN

CITY           SKY/WX    TMP DP  RH WIND       PRES   REMARKS
MEDFORD        NOT AVBL
WAUSAU         CLEAR     66  57  72 NW9       29.94F
MOSINEE        NOT AVBL
MARSHFIELD     CLEAR     64  56  75 W7        29.98F
WISC RAPIDS    CLEAR     66  57  72 W7        29.99S
STEVENS POINT  NOT AVBL
WAUPACA        NOT AVBL
SHAWANO        NOT AVBL
CLINTONVILLE   NOT AVBL
$$

WIZ038-039-048-051-310900-
FOX VALLEY

CITY           SKY/WX    TMP DP  RH WIND       PRES   REMARKS
NWS GREEN BAY  CLEAR     67  58  72 W9        29.93S
APPLETON       NOT AVBL
OSHKOSH        CLEAR     67  57  70 SW5       29.96S
FOND DU LAC    CLEAR     67  57  70 SW6       29.98S
$$

WIZ022-050-052-310900-
EAST CENTRAL WISCONSIN

CITY           SKY/WX    TMP DP  RH WIND       PRES   REMARKS
STURGEON BAY   CLEAR     70  57  64 W10G17    29.92S
MANITOWOC      NOT AVBL
SHEBOYGAN      CLEAR     66  58  75 W7        29.96S
$$

LMZ563-521-522-541>543-310900-
LAKESHORE

STATION/POSITION TIME  TEMP    WIND        PRES    VSBY  WAVE
                       AIR SEA DIR/SP/G                  HT/PER
                 (UTC) (F)     (DEG/KT/KT) (MB)    (MI)  (FT/S)
SHEBOYGAN LKSHOR 0700   72     260/ 11/ 13 1014.3F
KEWAUNEE LKSHORE 0700   68     280/  4/  6 1012.6F
ALGOMA MARINA    0712          250/  3/  6   N/A
NORTHPORT PIER   0700   70     250/  4/ 10 1011.5F
N MID LAKE BUOY  0650   71 69  250/ 16/ 17 1010.4F         2/ 3
S GREEN BAY BUOY 0700   68 70  260/ 12/ 14 1014.0F
SISTER BAY LKSHO 0714   71     290/ 18/ 21   N/A
CHAMBERS ISLAND  0700   67     220/  8/ 12 1011.9F
MENOMINEE LKSHOR 0700   67     260/ 10/ 14 1013.0F
$$


USA.gov is the U.S. government's official web portal to all federal, state and local government web resources and services.